Home   Weather   Rheinberg   Past weeks

Flag for Germany Past Weather in Rheinberg, North Rhine-Westphalia, Germany — Yesterday and Last 2 Weeks

Now
36 °F

Sprinkles. Broken clouds.


Feels Like: 27 °F
Forecast: 39 / 48 °F
Wind: 13 mph from Southwest

Location: Duesseldorf

Current Time: Feb 28, 2017 at 6:08:53 pm

Latest Report: Feb 28, 2017 at 5:50 pm


Visibility: 4 mi

Pressure: 29.27 "Hg

Humidity: 93%

Dew Point: 34 °F

Location of RheinbergLocation

Past Weather in Rheinberg — Graph

°F

Rheinberg Temperature Yesterday

Maximum temperature yesterday: 55 °F (at 2:20 pm)
Minimum temperature yesterday: 45 °F (at 6:20 pm)
Average temperature yesterday: 51 °F

High & Low Weather Summary for the Past Weeks

 TemperatureHumidityPressure
High61 °F (Feb 15, 3:50 pm)100% (Feb 17, 1:20 am)30.51 "Hg (Feb 17, 1:20 am)
Low27 °F (Feb 14, 7:20 am)38% (Feb 14, 3:50 pm)29.21 "Hg (Feb 28, 2:20 pm)
Average46 °F76%30.01 "Hg
* Reported Feb 13 4:20 pm — Feb 28 4:20 pm, Rheinberg, Weather by CustomWeather, © 2017

Note: Actual official high and low records may vary slightly from our data, if they occured in-between our weather recording intervals... More about our weather records

Advertising

Rheinberg Weather History for the Previous 24 Hours

Scroll right to see more
 ConditionsComfort  
Time TempWeatherWind HumidityBarometerVisibility
4:20 pm
Tue, Feb 28
45 °FLight rain. Broken clouds.12 mph66%29.21 "HgN/A
3:50 pm45 °FLight rain. Broken clouds.13 mph66%29.21 "HgN/A
3:20 pm46 °FLight rain. Broken clouds.15 mph62%29.21 "HgN/A
2:50 pm46 °FBroken clouds.12 mph62%29.21 "HgN/A
2:20 pm46 °FBroken clouds.16 mph57%29.21 "HgN/A
1:50 pm46 °FBroken clouds.18 mph57%29.24 "HgN/A
1:20 pm46 °FBroken clouds.23 mph57%29.24 "HgN/A
12:50 pm46 °FBroken clouds.24 mph53%29.24 "HgN/A
12:20 pm46 °FBroken clouds.24 mph53%29.27 "HgN/A
11:50 am46 °FScattered clouds.23 mph57%29.27 "HgN/A
11:20 am45 °FPartly sunny.25 mph61%29.27 "HgN/A
10:50 am45 °FPartly sunny.23 mph61%29.27 "HgN/A
10:20 am45 °FBroken clouds.24 mph61%29.27 "HgN/A
9:50 am45 °FPartly sunny.23 mph61%29.27 "HgN/A
9:20 am43 °FPartly sunny.26 mph66%29.27 "HgN/A
8:50 am43 °FPartly sunny.20 mph66%29.27 "HgN/A
8:20 am43 °FPartly sunny.20 mph66%29.27 "HgN/A
7:50 am41 °FPartly sunny.20 mph70%29.27 "HgN/A
7:20 am41 °FPartly cloudy.22 mph70%29.27 "HgN/A
6:50 am41 °FPassing clouds.21 mph70%29.27 "HgN/A
6:20 am41 °FPassing clouds.16 mph70%29.27 "HgN/A
5:50 am41 °FPassing clouds.14 mph76%29.24 "HgN/A
5:20 am41 °FPassing clouds.14 mph76%29.24 "HgN/A
4:50 am41 °FPassing clouds.16 mph76%29.24 "HgN/A
4:20 am41 °FPassing clouds.17 mph76%29.24 "HgN/A
3:50 am41 °FPassing clouds.16 mph76%29.24 "HgN/A
3:20 am41 °FSprinkles. Partly cloudy.20 mph81%29.24 "HgN/A
2:50 am43 °FSprinkles. Partly cloudy.17 mph76%29.24 "HgN/A
2:20 am41 °FClear.14 mph81%29.24 "Hg10 mi
1:50 am41 °FScattered showers. Partly cloudy.15 mph81%29.24 "HgN/A
1:20 am41 °FSprinkles. Partly cloudy.23 mph81%29.24 "HgN/A
12:50 am43 °FScattered showers. Partly cloudy.17 mph76%29.27 "HgN/A
12:20 am43 °FLight rain. Passing clouds.30 mph76%29.27 "Hg6 mi
11:50 pm
Mon, Feb 27
46 °FPartly cloudy.18 mph71%29.24 "HgN/A
11:20 pm46 °FPassing clouds.23 mph71%29.24 "HgN/A
10:50 pm46 °FPassing clouds.24 mph71%29.27 "HgN/A
10:20 pm48 °FPartly cloudy.22 mph66%29.27 "HgN/A
9:50 pm48 °FClear.20 mph66%29.24 "Hg10 mi
9:20 pm48 °FClear.23 mph66%29.27 "Hg10 mi
8:50 pm48 °FClear.26 mph71%29.24 "Hg10 mi
8:20 pm48 °FPartly cloudy.21 mph71%29.27 "HgN/A
7:50 pm46 °FPassing clouds.17 mph82%29.27 "HgN/A
7:20 pm46 °FClear.16 mph82%29.30 "Hg10 mi
6:50 pm46 °FRain. Passing clouds.23 mph87%29.33 "HgN/A
6:20 pm45 °FHeavy rain. Partly cloudy.22 mph100%29.33 "Hg2 mi
Weather by CustomWeather, © 2017

See weather overviewHow to use our weather pages